Total_Precipitation_Accumulation
0.00 0.00 0.00 0.00 0.00 0.00 0.00 0.00 0.00 0.00 0.00 0.00 0.00 0.00 0.00 0.00 0.00 0.00 0.00 0.00 0.00 0.00 0.00 0.00 0.00 0.00 0.00 0.02 0.02 0.01 0.01 0.02 0.00 0.00 0.01 0.01 0.01 0.01 0.01 0.02 0.02 0.01 0.02 0.02 0.01 0.01 0.01 0.01 0.01 0.01 0.01 0.02 0.03 0.02 0.02 0.02 0.03 0.03 0.05 0.10 0.16 0.18 0.26 0.26 0.39 0.14 0.05 0.01 0.01 0.01 0.01 0.02 0.10 0.15 0.22 0.23 0.26 0.30 0.17 0.44 0.41 0.45 0.15 0.21 0.29
0.00 0.00 0.00 0.00 0.00 0.00 0.00 0.00 0.00 0.00 0.00 0.00 0.00 0.00 0.00 0.00 0.00 0.00 0.00 0.00 0.00 0.00 0.02 0.03 0.04 0.01 0.00 0.00 0.00 0.01 0.02 0.02 0.03 0.01 0.01 0.01 0.02 0.01 0.02 0.02 0.01 0.01 0.01 0.01 0.00 0.01 0.00 0.01 0.01 0.01 0.01 0.03 0.04 0.03 0.03 0.05 0.09 0.08 0.12 0.11 0.22 0.32 0.32 0.57 0.21 0.21 0.07 0.02 0.02 0.03 0.02 0.02 0.02 0.02 0.20 0.06 0.07 0.36 0.36 0.14 0.24 0.40 0.31 0.27 0.29
0.00 0.00 0.01 0.00 0.01 0.01 0.03 0.00 0.00 0.00 0.00 0.00 0.00 0.00 0.00 0.00 0.00 0.00 0.00 0.00 0.02 0.02 0.01 0.00 0.01 0.00 0.02 0.00 0.01 0.01 0.01 0.07 0.05 0.01 0.02 0.01 0.01 0.02 0.02 0.03 0.02 0.01 0.02 0.01 0.01 0.00 0.01 0.01 0.01 0.01 0.01 0.03 0.03 0.04 0.02 0.04 0.05 0.08 0.06 0.07 0.11 0.08 0.13 0.21 0.29 0.21 0.10 0.06 0.01 0.03 0.02 0.02 0.02 0.02 0.01 0.03 0.08 0.06 0.12 0.17 0.33 0.15 0.20 0.14 0.18
0.00 0.00 0.01 0.02 0.03 0.05 0.05 0.03 0.00 0.00 0.00 0.01 0.03 0.06 0.01 0.01 0.02 0.02 0.03 0.04 0.03 0.03 0.00 0.00 0.02 0.06 0.00 0.01 0.03 0.01 0.02 0.06 0.03 0.04 0.01 0.01 0.03 0.03 0.03 0.03 0.02 0.02 0.03 0.01 0.00 0.00 0.01 0.01 0.01 0.01 0.01 0.02 0.04 0.03 0.06 0.08 0.07 0.05 0.08 0.06 0.11 0.06 0.08 0.11 0.22 0.32 0.21 0.17 0.03 0.02 0.02 0.02 0.02 0.01 0.01 0.01 0.01 0.02 0.06 0.14 0.22 0.36 0.34 0.18 0.09
0.00 0.01 0.02 0.05 0.07 0.05 0.22 0.11 0.02 0.00 0.03 0.03 0.01 0.01 0.00 0.01 0.02 0.03 0.04 0.08 0.03 0.01 0.00 0.02 0.01 0.01 0.02 0.02 0.04 0.02 0.03 0.02 0.01 0.02 0.02 0.02 0.01 0.03 0.02 0.04 0.02 0.03 0.01 0.00 0.00 0.01 0.02 0.02 0.01 0.00 0.00 0.02 0.02 0.04 0.12 0.17 0.23 0.17 0.16 0.16 0.23 0.10 0.17 0.28 0.42 0.36 0.22 0.23 0.09 0.04 0.02 0.04 0.03 0.02 0.02 0.05 0.03 0.03 0.04 0.13 0.05 0.09 0.17 0.14 0.07
0.00 0.01 0.02 0.10 0.24 0.60 0.35 0.10 0.01 0.09 0.07 0.04 0.03 0.02 0.02 0.02 0.03 0.04 0.03 0.02 0.02 0.02 0.02 0.01 0.01 0.03 0.02 0.04 0.04 0.03 0.02 0.08 0.08 0.07 0.04 0.03 0.01 0.02 0.01 0.03 0.03 0.03 0.01 0.01 0.00 0.01 0.02 0.02 0.00 0.01 0.01 0.03 0.03 0.04 0.19 0.32 0.18 0.10 0.21 0.14 0.13 0.22 0.29 0.22 0.16 0.41 0.26 0.14 0.24 0.19 0.08 0.09 0.08 0.08 0.04 0.07 0.09 0.11 0.09 0.17 0.11 0.11 0.13 0.17 0.08
0.01 0.02 0.04 0.05 0.60 1.18 0.37 0.12 0.06 0.13 0.12 0.09 0.06 0.02 0.02 0.08 0.08 0.05 0.04 0.03 0.03 0.02 0.02 0.02 0.02 0.02 0.01 0.03 0.02 0.03 0.04 0.12 0.20 0.10 0.07 0.07 0.04 0.03 0.01 0.02 0.04 0.03 0.01 0.00 0.01 0.01 0.02 0.01 0.01 0.01 0.01 0.03 0.06 0.07 0.11 0.17 0.14 0.14 0.11 0.19 0.09 0.11 0.11 0.08 0.18 0.41 0.25 0.20 0.23 0.15 0.12 0.06 0.13 0.09 0.07 0.19 0.04 0.06 0.13 0.20 0.58 0.25 0.16 0.10 0.17
0.01 0.01 0.05 0.11 0.81 1.08 0.71 0.41 0.20 0.07 0.07 0.07 0.03 0.11 0.07 0.12 0.07 0.09 0.07 0.07 0.04 0.02 0.02 0.03 0.03 0.01 0.01 0.01 0.00 0.01 0.03 0.12 0.12 0.12 0.09 0.10 0.05 0.03 0.02 0.02 0.02 0.04 0.01 0.01 0.01 0.02 0.01 0.01 0.01 0.02 0.05 0.09 0.13 0.12 0.09 0.31 0.38 0.32 0.31 0.32 0.33 0.37 0.40 0.28 0.25 0.37 0.42 0.20 0.23 0.13 0.12 0.13 0.09 0.12 0.06 0.12 0.16 0.07 0.12 0.14 0.15 0.19 0.16 0.11 0.15
0.00 0.08 0.10 0.42 0.99 0.84 0.54 0.84 0.45 0.42 0.20 0.16 0.08 0.10 0.19 0.17 0.14 0.10 0.08 0.05 0.05 0.06 0.07 0.07 0.05 0.03 0.01 0.00 0.01 0.07 0.12 0.14 0.07 0.10 0.06 0.05 0.03 0.02 0.03 0.02 0.04 0.02 0.02 0.01 0.01 0.01 0.01 0.01 0.02 0.08 0.09 0.09 0.15 0.47 0.18 0.30 0.26 0.17 0.10 0.22 0.24 0.47 0.23 0.27 0.30 0.28 0.48 0.48 0.25 0.16 0.24 0.18 0.12 0.15 0.13 0.16 0.16 0.12 0.10 0.12 0.11 0.13 0.13 0.11 0.23
0.09 0.13 0.53 1.11 1.17 0.32 0.41 0.69 0.61 0.62 0.51 0.91 0.66 0.39 0.40 0.55 0.41 0.15 0.11 0.12 0.10 0.08 0.06 0.04 0.01 0.01 0.00 0.00 0.01 0.03 0.01 0.04 0.04 0.01 0.01 0.03 0.03 0.02 0.03 0.03 0.02 0.02 0.02 0.01 0.01 0.01 0.01 0.01 0.03 0.09 0.15 0.21 0.20 0.08 0.06 0.15 0.20 0.10 0.09 0.13 0.12 0.17 0.12 0.20 0.14 0.13 0.19 0.20 0.16 0.21 0.23 0.14 0.10 0.09 0.11 0.14 0.14 0.11 0.14 0.24 0.18 0.10 0.09 0.16 0.17
0.58 0.74 0.54 0.92 0.63 0.54 0.76 0.44 0.32 0.59 0.44 0.78 1.19 0.75 0.90 1.40 0.85 0.16 0.11 0.10 0.07 0.05 0.08 0.02 0.02 0.01 0.01 0.00 0.00 0.01 0.01 0.11 0.01 0.03 0.01 0.00 0.01 0.00 0.02 0.01 0.02 0.02 0.02 0.01 0.03 0.01 0.01 0.08 0.16 0.09 0.10 0.13 0.40 0.08 0.09 0.08 0.05 0.03 0.02 0.03 0.06 0.19 0.16 0.11 0.09 0.13 0.11 0.14 0.12 0.14 0.13 0.12 0.06 0.07 0.10 0.10 0.13 0.26 0.26 0.26 0.32 0.23 0.23 0.19 0.27
0.28 0.48 0.43 0.56 0.79 0.90 0.66 0.61 0.23 0.49 0.97 0.68 0.95 1.65 1.50 0.91 0.46 0.22 0.16 0.14 0.09 0.08 0.10 0.07 0.03 0.02 0.01 0.01 0.01 0.01 0.07 0.03 0.02 0.01 0.00 0.00 0.01 0.01 0.02 0.05 0.04 0.12 0.05 0.04 0.07 0.07 0.12 0.18 0.16 0.12 0.20 0.50 0.64 0.59 0.20 0.02 0.02 0.02 0.02 0.03 0.05 0.05 0.08 0.18 0.15 0.10 0.09 0.14 0.16 0.12 0.15 0.13 0.09 0.12 0.11 0.17 0.45 0.31 0.39 0.35 0.24 0.22 0.15 0.24 0.18
0.02 0.14 0.47 0.64 0.62 0.42 0.49 0.56 0.62 0.59 0.77 0.90 0.96 0.77 0.83 1.44 0.88 0.67 0.21 0.24 0.22 0.08 0.06 0.02 0.01 0.02 0.02 0.03 0.01 0.03 0.06 0.03 0.02 0.01 0.01 0.00 0.00 0.03 0.00 0.03 0.08 0.07 0.11 0.07 0.06 0.03 0.06 0.04 0.06 0.09 0.08 0.69 0.28 0.17 0.31 0.23 0.05 0.02 0.03 0.09 0.04 0.01 0.01 0.01 0.04 0.09 0.17 0.24 0.17 0.14 0.14 0.16 0.20 0.13 0.38 0.31 0.33 0.23 0.15 0.15 0.16 0.21 0.21 0.19 0.17
0.82 0.45 0.50 0.41 0.15 0.32 0.42 0.75 0.65 0.61 0.79 1.02 1.12 0.65 0.87 0.90 0.93 0.62 0.54 0.25 0.06 0.05 0.01 0.00 0.00 0.01 0.03 0.03 0.03 0.03 0.05 0.03 0.01 0.00 0.01 0.00 0.00 0.00 0.03 0.01 0.02 0.04 0.01 0.05 0.04 0.23 0.17 0.14 0.24 0.12 0.28 0.84 0.91 0.33 0.33 0.22 0.41 0.25 0.22 0.07 0.04 0.02 0.01 0.03 0.03 0.27 0.24 0.54 0.36 0.25 0.12 0.41 0.45 0.20 0.19 0.14 0.25 0.20 0.19 0.12 0.32 0.24 0.14 0.15 0.08
0.56 0.41 0.39 0.67 0.74 0.37 0.38 0.68 0.51 0.77 0.95 1.33 0.85 0.74 0.79 0.58 0.55 0.44 0.14 0.09 0.01 0.02 0.00 0.00 0.00 0.03 0.19 0.04 0.02 0.04 0.01 0.00 0.02 0.00 0.01 0.00 0.00 0.01 0.07 0.02 0.04 0.04 0.05 0.02 0.52 0.12 0.17 0.40 0.39 0.53 0.59 0.40 0.19 0.09 0.19 0.21 0.59 0.29 0.16 0.02 0.02 0.01 0.04 0.02 0.45 1.02 1.44 0.37 0.60 0.23 0.15 0.16 0.18 0.18 0.31 0.20 0.16 0.07 0.07 0.11 0.33 0.28 0.13 0.11 0.09
0.96 1.36 1.37 0.88 0.75 0.52 0.42 0.27 0.73 1.14 1.51 0.97 0.67 0.91 0.46 0.19 0.10 0.11 0.05 0.01 0.01 0.00 0.01 0.01 0.01 0.04 0.05 0.03 0.01 0.01 0.01 0.00 0.01 0.01 0.00 0.00 0.00 0.04 0.04 0.43 0.47 0.04 0.04 0.34 0.28 0.14 0.23 0.82 0.65 0.31 0.27 0.54 0.10 0.04 0.05 0.76 0.08 0.03 0.02 0.03 0.03 0.03 0.05 0.02 0.08 0.52 0.35 0.56 0.42 0.32 0.79 1.01 0.27 0.28 0.12 0.09 0.07 0.09 0.13 0.15 0.31 0.79 0.50 0.46 0.18
0.59 0.43 0.72 0.59 0.34 0.16 0.11 0.31 0.63 0.84 0.75 0.10 0.07 0.34 0.35 0.08 0.04 0.04 0.02 0.01 0.00 0.00 0.00 0.00 0.01 0.01 0.01 0.01 0.01 0.04 0.03 0.02 0.00 0.04 0.01 0.01 0.02 0.07 0.74 0.40 0.08 0.08 0.09 0.19 0.09 0.34 0.50 0.53 0.19 0.33 0.19 0.12 0.06 0.03 0.04 0.23 0.10 0.33 0.19 0.08 0.03 0.04 0.02 0.10 0.26 0.39 0.43 0.39 0.20 0.24 0.32 0.15 0.11 0.08 0.06 0.04 0.09 0.26 0.40 0.44 0.30 0.22 0.30 0.31 0.18
0.26 0.24 0.22 0.20 0.10 0.09 0.06 0.08 0.27 0.94 0.87 0.35 0.03 0.05 0.04 0.05 0.02 0.03 0.02 0.01 0.01 0.01 0.00 0.01 0.00 0.01 0.03 0.03 0.03 0.04 0.04 0.01 0.01 0.02 0.03 0.02 0.03 0.52 0.11 0.10 0.18 0.28 0.11 0.10 0.28 0.26 0.51 0.15 0.03 0.12 0.15 0.06 0.05 0.04 0.05 0.12 0.09 0.06 0.05 0.07 0.06 0.07 0.04 0.15 1.38 0.83 0.28 0.28 0.16 0.11 0.09 0.09 0.11 0.11 0.09 0.09 0.12 0.18 0.50 0.65 0.29 0.39 0.42 0.33 0.24
0.04 0.03 0.05 0.05 0.04 0.09 0.09 0.17 0.31 0.22 0.13 0.37 0.50 0.03 0.01 0.01 0.01 0.01 0.02 0.01 0.01 0.01 0.00 0.00 0.02 0.00 0.03 0.02 0.02 0.02 0.07 0.12 0.04 0.03 0.03 0.03 0.04 0.49 0.22 0.19 0.16 0.23 0.30 0.20 0.21 0.21 0.22 0.19 0.26 0.06 0.09 0.09 0.05 0.09 0.13 0.12 0.07 0.04 0.09 0.09 0.09 0.08 0.09 0.51 1.18 0.77 0.75 0.25 0.17 0.11 0.08 0.04 0.04 0.09 0.10 0.10 0.11 0.13 0.27 0.41 0.30 0.44 0.46 0.50 0.24
0.01 0.00 0.00 0.01 0.01 0.02 0.02 0.21 0.26 0.03 0.05 0.06 0.35 0.04 0.01 0.01 0.01 0.01 0.00 0.00 0.00 0.02 0.00 0.04 0.02 0.01 0.02 0.07 0.04 0.07 0.11 0.31 0.22 0.14 0.03 0.04 0.03 0.20 0.23 0.25 0.11 0.16 0.23 0.12 0.16 0.11 0.12 0.11 0.06 0.01 0.01 0.04 0.06 0.08 0.10 0.09 0.11 0.10 0.10 0.16 0.17 0.15 0.46 0.91 0.35 0.20 0.35 0.26 0.16 0.17 0.13 0.08 0.09 0.12 0.14 0.14 0.15 0.18 0.20 0.21 0.27 0.41 0.68 0.33 0.25
0.00 0.00 0.00 0.00 0.00 0.00 0.03 0.10 0.04 0.02 0.03 0.08 0.08 0.03 0.02 0.02 0.00 0.01 0.01 0.02 0.03 0.08 0.14 0.05 0.07 0.20 0.05 0.06 0.26 0.25 0.30 0.17 0.40 0.08 0.09 0.03 0.06 0.10 0.35 0.41 0.23 0.38 0.08 0.15 0.18 0.10 0.05 0.05 0.06 0.07 0.03 0.04 0.08 0.11 0.15 0.17 0.13 0.15 0.18 0.39 0.62 0.53 0.94 0.44 0.30 0.22 0.30 0.29 0.26 0.23 0.20 0.16 0.12 0.13 0.17 0.17 0.19 0.15 0.15 0.12 0.41 0.46 0.55 0.54 0.41
0.01 0.00 0.00 0.00 0.00 0.01 0.01 0.01 0.01 0.01 0.02 0.05 0.13 0.09 0.01 0.00 0.01 0.02 0.05 0.07 0.09 0.09 0.18 0.53 0.20 0.16 0.30 0.48 0.46 0.52 0.26 0.33 0.33 0.03 0.05 0.07 0.07 0.23 0.64 0.57 0.32 0.20 0.28 0.23 0.14 0.04 0.04 0.04 0.05 0.09 0.02 0.03 0.07 0.11 0.17 0.20 0.23 0.76 0.45 0.30 0.39 0.67 0.43 0.34 0.34 0.29 0.35 0.39 0.46 0.42 0.50 0.33 0.26 0.21 0.18 0.14 0.11 0.11 0.14 0.33 0.67 0.94 0.78 0.50 0.71
0.00 0.00 0.00 0.00 0.00 0.01 0.00 0.00 0.00 0.02 0.02 0.13 0.37 0.37 0.25 0.27 0.48 0.30 0.13 0.08 0.20 0.49 0.57 0.88 0.47 0.63 0.85 0.98 0.71 1.54 1.99 0.97 0.27 0.09 0.04 0.02 0.02 0.03 0.21 0.29 0.04 0.11 0.08 0.15 0.01 0.03 0.11 0.06 0.04 0.01 0.01 0.01 0.05 0.10 0.22 0.22 1.59 0.63 0.21 0.23 0.39 0.28 0.36 0.46 0.43 0.39 0.59 1.05 1.24 1.52 0.81 0.59 0.54 0.43 0.29 0.20 0.13 0.13 0.52 0.84 1.03 0.76 0.63 0.43 0.38
0.00 0.00 0.00 0.00 0.00 0.00 0.01 0.00 0.04 0.08 0.40 0.86 1.06 0.60 0.40 0.35 0.52 0.29 0.22 0.16 0.17 0.15 0.67 0.47 0.19 0.21 0.57 0.81 1.56 3.16 2.36 0.44 0.20 0.17 0.18 0.03 0.02 0.03 0.02 0.02 0.01 0.04 0.02 0.03 0.04 0.04 0.07 0.06 0.02 0.01 0.01 0.02 0.05 0.09 0.13 1.54 1.66 0.28 0.26 0.24 0.29 0.37 0.45 0.47 0.58 0.55 0.96 1.68 1.84 1.67 1.13 0.93 0.79 0.54 0.58 0.50 0.59 0.60 0.91 0.98 0.78 0.81 0.76 0.55 0.37
0.03 0.03 0.02 0.02 0.03 0.37 0.53 0.61 0.36 0.37 0.81 0.82 0.62 0.14 0.19 0.23 0.26 0.17 0.09 0.08 0.09 0.11 0.19 0.17 0.59 1.29 0.95 0.47 0.51 0.62 0.38 0.38 0.23 0.12 0.03 0.02 0.06 0.05 0.11 0.26 0.20 0.05 0.01 0.01 0.02 0.04 0.02 0.02 0.03 0.03 0.07 0.27 0.19 0.21 0.19 0.57 0.70 0.34 0.31 0.32 0.38 0.50 0.42 0.44 0.48 0.83 1.43 1.88 2.24 1.76 1.09 1.03 1.45 1.52 1.04 1.02 1.07 1.15 1.12 0.63 0.39 0.38 0.45 0.57 0.47
0.11 0.13 0.08 0.18 0.28 0.29 0.09 0.13 0.32 0.43 0.18 0.08 0.03 0.06 0.08 0.13 0.12 0.09 0.04 0.04 0.08 0.17 0.20 0.33 0.62 0.95 0.93 0.49 0.70 0.51 0.48 0.37 0.33 0.21 0.07 0.11 0.21 0.09 0.04 0.01 0.01 0.02 0.02 0.03 0.04 0.01 0.01 0.02 0.03 0.04 0.03 0.03 0.10 0.43 0.19 0.14 0.21 0.27 0.31 0.41 0.50 0.49 0.47 0.62 0.54 0.80 1.41 1.97 1.70 1.99 1.59 1.19 1.21 1.21 1.68 2.06 1.99 1.16 0.90 0.66 0.73 0.66 0.50 0.51 0.46
0.57 0.35 0.34 0.27 0.23 0.17 0.19 0.18 0.16 0.09 0.03 0.03 0.07 0.14 0.25 0.04 0.02 0.04 0.03 0.09 0.15 0.20 0.11 0.36 0.34 0.39 0.53 0.61 0.51 0.46 0.76 0.40 0.23 0.10 0.15 0.11 0.08 0.04 0.04 0.08 0.05 0.06 0.08 0.10 0.06 0.04 0.06 0.03 0.04 0.03 0.03 0.02 0.08 0.04 0.04 0.10 0.13 0.12 0.23 0.41 0.44 0.43 0.49 0.52 0.72 1.24 1.54 2.03 1.91 2.10 1.44 1.18 1.02 1.22 1.10 1.73 1.77 1.76 1.43 1.69 1.21 0.71 0.55 0.45 0.53
0.71 0.29 0.33 0.36 0.30 0.22 0.25 0.08 0.04 0.06 0.08 0.10 0.10 0.08 0.04 0.03 0.03 0.03 0.07 0.19 0.24 0.24 0.30 0.30 0.49 0.35 0.33 0.52 0.57 0.40 0.30 0.29 0.05 0.07 0.06 0.04 0.02 0.03 0.05 0.03 0.05 0.06 0.05 0.03 0.05 0.07 0.04 0.02 0.08 0.26 0.31 0.48 0.06 0.05 0.08 0.12 0.11 0.10 0.16 0.30 0.42 0.39 0.40 0.67 1.08 1.12 1.08 1.52 1.84 1.68 1.25 0.91 0.69 1.02 1.58 1.69 1.83 2.33 1.90 1.69 1.08 0.78 0.71 1.17 1.67
1.26 0.60 0.31 0.52 0.64 0.76 0.53 0.29 0.36 0.26 0.15 0.09 0.05 0.06 0.10 0.10 0.08 0.05 0.12 0.05 0.15 0.11 0.16 0.27 0.83 0.52 0.48 0.75 0.69 0.12 0.14 0.04 0.06 0.02 0.05 0.04 0.04 0.08 0.07 0.05 0.03 0.02 0.02 0.01 0.04 0.27 0.37 0.80 0.93 0.89 0.72 0.43 0.07 0.04 0.03 0.06 0.09 0.08 0.22 0.16 0.31 0.41 0.42 0.62 0.80 0.90 0.97 1.40 1.07 1.10 1.56 1.46 1.40 1.36 1.26 1.40 1.96 2.14 1.72 1.86 1.65 1.47 1.98 1.57 1.70
2.10 2.45 2.61 2.14 1.89 1.37 0.95 0.81 0.78 0.81 0.88 0.36 0.20 0.11 0.12 0.26 0.14 0.38 0.52 0.29 0.35 0.43 0.50 0.53 0.23 0.19 0.32 0.24 0.07 0.19 0.08 0.05 0.04 0.05 0.02 0.04 0.05 0.04 0.04 0.01 0.02 0.01 0.01 0.12 0.55 0.71 0.97 1.15 1.05 1.23 0.41 0.23 0.17 0.14 0.02 0.26 0.03 0.08 0.07 0.12 0.19 0.34 0.41 0.36 0.54 0.82 0.85 0.80 0.75 0.76 0.95 1.18 1.09 1.11 1.15 1.37 1.46 1.75 2.24 2.02 1.98 1.77 2.17 1.55 1.35
1.90 2.07 2.35 2.17 2.08 1.81 1.87 1.98 2.13 1.81 1.52 1.81 1.03 0.83 0.79 0.94 1.02 1.02 1.45 1.12 0.90 0.73 0.90 0.82 0.85 0.83 0.85 0.77 0.68 0.14 0.07 0.02 0.06 0.04 0.06 0.05 0.03 0.11 0.11 0.02 0.25 0.32 0.60 0.97 0.82 0.97 0.87 1.05 1.30 0.83 0.63 0.37 0.19 0.08 0.07 0.05 0.06 0.06 0.06 0.11 0.18 0.27 0.31 0.31 0.35 0.40 0.63 0.78 1.21 1.04 1.13 1.36 1.77 1.67 1.21 1.11 1.18 1.79 1.71 1.83 1.72 1.65 1.61 1.68 1.66
1.39 1.37 1.12 1.33 1.48 1.40 1.59 1.52 1.33 1.60 1.66 1.30 1.01 0.68 0.49 0.45 0.94 0.76 0.84 0.91 0.95 0.80 0.92 0.88 0.95 0.79 0.90 1.01 0.99 0.66 0.91 1.02 1.20 0.83 0.63 0.63 1.11 1.20 1.16 0.91 0.68 0.58 0.54 0.72 0.75 1.20 1.27 1.16 0.80 0.49 0.29 0.10 0.21 0.08 0.08 0.04 0.04 0.06 0.07 0.08 0.14 0.19 0.18 0.25 0.28 0.32 0.32 0.42 0.81 1.17 1.06 1.15 0.96 1.08 0.89 0.79 0.80 0.72 1.03 1.66 1.61 1.75 1.63 1.51 1.89
1.74 1.52 1.36 1.15 0.96 1.22 1.10 1.23 1.23 1.24 1.22 1.24 1.15 1.11 1.06 0.89 0.47 0.38 0.69 0.68 0.45 0.23 0.50 0.64 0.61 0.86 0.96 0.88 0.82 0.69 0.80 0.97 1.29 1.31 1.47 1.02 0.85 0.77 1.37 1.44 1.12 0.86 1.00 1.57 1.85 2.04 1.68 1.66 1.53 0.94 0.80 0.69 0.51 0.57 0.68 0.70 0.70 0.36 0.24 0.28 0.20 0.21 0.21 0.24 0.40 0.54 0.73 1.01 0.91 0.74 0.67 0.81 0.84 0.93 1.06 0.93 0.65 0.62 0.67 1.00 1.25 1.75 2.02 2.14 1.93
0.71 0.89 1.04 1.07 1.21 0.69 0.69 1.05 1.23 1.11 1.42 1.68 1.47 1.31 1.23 1.06 1.02 0.74 0.30 0.42 0.33 0.27 0.62 0.82 1.00 0.80 0.65 0.57 0.86 0.92 0.82 0.77 1.02 0.97 0.92 1.10 1.22 1.10 1.41 1.26 1.49 1.41 1.24 1.51 1.54 1.68 1.04 0.74 0.43 0.29 0.28 0.36 0.27 0.35 0.41 0.34 0.31 0.20 0.16 0.22 0.30 0.24 0.27 0.42 0.56 0.76 0.60 0.52 0.43 0.35 0.41 0.51 0.64 0.75 0.82 1.00 1.04 0.91 0.98 0.99 1.15 1.38 1.89 1.79 1.58
0.40 0.56 0.64 0.68 0.83 0.99 1.15 1.65 1.94 1.98 2.08 2.40 2.51 2.82 2.90 2.51 2.08 1.75 1.66 1.01 0.86 0.57 0.94 1.13 1.38 0.66 0.69 0.79 0.74 1.04 1.11 0.84 0.97 0.83 0.63 0.90 0.58 0.60 0.50 1.18 1.47 1.63 1.75 1.52 1.32 0.91 0.79 0.62 0.42 0.33 0.17 0.17 0.17 0.31 0.27 0.20 0.23 0.38 0.35 0.26 0.14 0.17 0.28 0.38 0.42 0.35 0.30 0.25 0.31 0.41 0.49 0.61 0.73 0.94 1.16 1.18 1.28 1.14 1.26 1.16 0.97 1.04 1.45 1.66 1.70
0.29 0.22 0.27 0.35 0.53 0.59 1.03 1.34 1.19 1.03 1.23 1.53 1.69 1.86 1.84 2.44 2.86 2.90 2.50 2.65 2.29 1.82 1.43 2.22 1.51 1.03 1.55 1.24 0.82 0.64 0.63 0.99 0.83 0.88 0.64 0.65 0.90 0.94 1.07 1.07 0.84 1.03 0.99 1.01 1.05 0.61 0.38 0.32 0.34 0.29 0.31 0.26 0.33 0.34 0.29 0.21 0.29 0.30 0.30 0.21 0.36 0.45 0.39 0.30 0.24 0.25 0.25 0.39 0.64 0.60 0.69 0.65 0.54 0.65 0.70 0.68 0.80 0.89 0.90 0.84 0.82 1.08 1.31 1.56 2.10
0.31 0.34 0.42 0.43 0.36 0.23 0.36 0.55 0.93 1.97 2.32 2.36 1.92 1.52 1.54 1.52 1.47 1.53 1.78 2.10 2.29 2.68 3.19 1.49 1.73 1.91 0.91 1.01 1.36 1.56 1.17 0.97 0.79 0.61 0.90 0.86 0.88 1.09 1.38 1.16 1.08 1.04 0.93 0.83 0.71 0.75 0.74 0.87 0.94 0.64 0.45 0.59 0.58 0.35 0.42 0.65 0.77 0.89 1.20 1.54 1.29 1.21 0.82 0.87 0.90 0.86 0.74 0.82 0.89 0.81 0.64 0.43 0.53 0.56 0.51 0.63 0.85 0.92 1.01 1.06 1.35 1.53 1.31 1.54 1.87
0.17 0.31 0.28 0.29 0.53 0.43 0.41 0.45 0.40 0.49 0.54 0.67 0.72 0.75 0.82 1.11 1.35 1.39 1.61 2.62 3.27 2.92 2.78 2.60 1.80 1.41 1.87 1.15 0.73 1.44 1.27 1.25 1.21 1.16 1.36 1.26 1.13 1.22 1.44 1.55 1.31 1.14 1.06 1.28 1.59 1.83 1.32 1.19 1.45 1.64 1.50 1.63 1.71 1.39 1.48 1.46 1.49 1.68 1.42 1.28 1.37 1.38 1.22 1.16 1.09 1.50 1.26 1.13 1.04 0.93 1.01 1.35 1.08 0.92 0.81 0.74 1.08 1.23 1.09 1.27 1.02 1.16 1.26 1.36 1.74
0.09 0.06 0.10 0.14 0.19 0.31 0.52 0.39 0.42 0.45 0.47 0.45 0.45 0.48 0.52 0.56 0.77 0.85 1.23 2.72 1.45 1.91 2.79 2.98 2.65 2.00 1.98 2.83 1.64 0.80 1.48 1.71 1.34 1.44 1.29 1.09 1.31 1.24 1.02 1.28 1.24 1.19 1.34 1.34 1.37 1.42 1.33 1.30 1.27 1.40 1.27 1.13 1.14 1.21 1.64 1.44 1.33 1.19 1.35 1.50 1.21 1.03 1.09 1.39 1.34 1.12 1.00 1.04 0.99 1.09 0.98 0.92 1.03 0.96 1.04 0.87 0.83 0.78 0.93 0.97 1.10 0.96 1.01 1.10 1.08
0.21 0.15 0.07 0.03 0.05 0.06 0.09 0.22 0.17 0.22 0.30 0.33 0.36 0.38 0.45 0.46 0.58 0.77 1.56 0.92 1.01 1.13 1.32 1.31 2.45 2.23 2.24 2.74 2.98 1.53 1.59 2.86 2.67 1.76 1.58 1.20 1.38 1.62 1.22 1.05 1.23 1.00 0.96 1.24 1.12 0.92 0.97 1.39 1.30 1.09 0.96 1.41 1.44 1.01 0.68 1.13 1.46 1.53 1.19 0.94 0.94 1.16 1.27 1.15 0.83 0.87 0.91 1.26 1.03 0.75 0.77 0.86 1.22 1.50 1.77 1.50 1.11 0.84 0.73 0.94 1.22 1.06 0.89 0.83 0.94
0.15 0.10 0.03 0.01 0.03 0.07 0.08 0.07 0.10 0.12 0.10 0.12 0.17 0.22 0.24 0.50 0.81 0.52 0.41 0.38 0.47 0.77 1.11 1.39 1.09 1.02 0.89 1.00 1.13 1.07 0.91 1.18 1.74 2.13 2.63 2.42 1.40 1.53 2.47 1.63 0.73 1.49 1.41 0.91 0.77 0.80 0.69 0.70 0.97 1.52 1.71 1.08 0.88 1.39 1.65 1.14 0.80 0.99 1.46 1.77 1.58 1.15 1.06 1.18 1.68 1.83 1.38 1.01 1.12 1.54 1.50 1.15 0.96 0.99 1.07 1.61 2.15 2.31 2.19 1.57 1.21 1.16 1.35 1.52 1.74
0.12 0.09 0.07 0.05 0.03 0.06 0.09 0.10 0.08 0.09 0.24 0.43 0.18 0.14 0.16 0.19 0.40 0.32 0.37 0.37 0.33 0.56 0.55 0.52 0.78 0.85 0.87 0.86 0.90 0.86 0.90 0.91 1.00 1.31 1.47 1.44 1.41 1.20 1.70 2.40 1.40 0.95 1.30 1.61 1.28 0.88 0.99 1.01 1.04 1.06 1.12 1.35 1.12 0.86 0.86 1.27 1.66 1.41 1.05 1.08 1.39 1.91 2.14 1.33 1.09 1.32 1.55 2.10 2.21 1.57 1.48 1.83 2.02 1.82 1.70 1.25 1.21 1.50 1.92 2.39 2.78 2.40 1.87 1.52 1.73
0.23 0.32 0.21 0.07 0.13 0.07 0.11 0.15 0.07 0.09 0.10 0.22 0.30 0.35 0.26 0.19 0.19 0.22 0.25 0.35 0.33 0.19 0.17 0.19 0.29 0.37 0.47 0.49 0.60 0.69 0.71 0.68 0.73 0.94 1.00 1.13 1.01 0.89 1.12 1.30 1.25 1.08 1.36 1.79 2.24 2.17 1.66 1.68 1.85 1.73 1.49 1.50 1.82 1.76 1.16 0.95 1.11 1.67 1.94 1.89 1.59 1.54 1.92 2.43 1.80 1.51 1.75 1.65 1.63 2.28 2.45 2.02 1.69 2.07 2.41 2.60 2.37 1.61 1.30 1.34 1.42 1.78 2.04 1.76 1.51
0.28 0.62 0.32 0.10 0.14 0.11 0.17 0.17 0.27 0.23 0.27 0.31 0.34 0.54 0.29 0.13 0.18 0.15 0.21 0.09 0.15 0.16 0.15 0.15 0.15 0.12 0.17 0.26 0.23 0.31 0.42 0.50 0.53 0.58 0.65 0.59 0.76 0.89 0.99 1.12 1.13 1.01 0.90 0.88 1.11 1.31 1.23 1.28 1.49 1.59 1.71 1.74 1.76 2.07 2.10 1.77 1.43 1.43 1.60 1.89 1.99 1.78 1.64 2.00 2.39 2.30 1.95 2.01 2.01 1.75 1.80 2.02 1.80 1.48 1.35 1.49 1.55 1.63 1.54 1.23 0.96 0.96 1.06 1.22 1.17
0.47 0.65 0.52 0.31 0.31 0.24 0.24 0.16 0.09 0.11 0.18 0.51 0.55 0.45 0.39 0.51 0.43 0.45 0.40 0.29 0.05 0.06 0.11 0.22 0.09 0.17 0.09 0.10 0.08 0.13 0.26 0.21 0.30 0.34 0.50 0.50 0.46 0.52 0.57 0.73 0.91 0.94 0.93 0.91 0.89 0.97 1.02 0.98 0.88 0.85 0.94 1.00 0.96 0.96 1.04 1.05 1.21 1.35 1.08 1.05 1.09 1.44 1.51 1.52 1.54 1.38 1.33 1.23 1.15 1.07 1.10 1.18 1.25 1.15 1.11 1.02 1.16 1.24 1.37 1.37 1.22 1.02 0.94 0.96 1.02
0.25 0.26 0.53 0.35 0.54 0.48 0.16 0.21 0.49 0.61 0.46 0.08 0.11 0.31 0.15 0.29 0.27 0.50 0.36 0.15 0.06 0.05 0.02 0.06 0.09 0.15 0.13 0.36 0.12 0.23 0.20 0.21 0.22 0.28 0.31 0.38 0.37 0.33 0.28 0.31 0.55 0.54 0.67 0.82 0.84 0.68 0.72 0.74 0.86 0.88 0.86 0.84 0.91 0.97 0.97 0.97 1.04 1.02 0.91 0.87 0.88 0.95 1.13 1.15 1.08 1.09 1.13 1.12 1.08 1.01 0.97 0.91 0.89 0.94 1.04 1.11 1.14 1.09 1.07 1.09 1.11 1.06 0.96 0.89 0.84
0.18 0.24 0.39 0.25 0.15 0.38 0.83 1.00 1.13 0.54 0.34 0.43 0.26 0.32 0.33 0.31 0.16 0.13 0.15 0.30 0.41 0.20 0.04 0.04 0.05 0.13 0.15 0.34 0.59 0.50 0.39 0.31 0.24 0.24 0.34 0.31 0.40 0.62 0.80 0.44 0.38 0.23 0.49 0.33 0.38 0.51 0.44 0.49 0.46 0.46 0.51 0.54 0.56 0.59 0.63 0.69 0.74 0.75 0.79 0.76 0.69 0.63 0.63 0.66 0.66 0.67 0.67 0.63 0.61 0.60 0.60 0.58 0.57 0.57 0.53 0.52 0.52 0.55 0.56 0.54 0.52 0.53 0.55 0.55 0.55
0.32 0.05 0.08 0.10 0.53 1.01 0.88 0.53 0.51 0.51 0.78 0.81 0.56 0.64 0.69 0.30 0.26 0.61 0.36 0.50 0.59 0.47 0.34 0.10 0.07 0.07 0.11 0.27 0.47 0.47 0.56 0.50 0.48 0.43 0.33 0.18 0.29 0.32 0.50 0.30 0.32 0.43 0.60 0.30 0.31 0.36 0.42 0.28 0.24 0.24 0.28 0.25 0.26 0.28 0.29 0.30 0.31 0.32 0.34 0.33 0.33 0.32 0.30 0.28 0.25 0.21 0.19 0.18 0.18 0.19 0.20 0.21 0.21 0.22 0.22 0.22 0.21 0.21 0.21 0.21 0.21 0.20 0.20 0.21 0.22
0.04 0.03 0.03 0.04 0.08 0.29 0.40 0.33 0.24 0.23 0.57 0.74 0.70 0.52 0.51 0.38 0.27 0.33 0.20 0.54 0.58 0.59 0.51 0.31 0.16 0.07 0.04 0.26 0.40 0.46 0.49 0.41 0.48 0.51 0.35 0.27 0.30 0.28 0.50 0.56 0.30 0.38 0.35 0.31 0.29 0.27 0.29 0.18 0.10 0.08 0.08 0.08 0.06 0.08 0.08 0.08 0.08 0.08 0.07 0.07 0.06 0.06 0.06 0.06 0.05 0.04 0.03 0.02 0.02 0.02 0.02 0.02 0.02 0.02 0.03 0.03 0.03 0.03 0.04 0.04 0.04 0.04 0.04 0.04 0.05
0.11 0.07 0.06 0.03 0.06 0.05 0.11 0.21 0.28 0.22 0.14 0.21 0.36 0.40 0.52 0.55 0.53 0.62 0.50 0.38 0.47 0.46 0.66 0.76 0.38 0.23 0.20 0.23 0.08 0.18 0.32 0.44 0.32 0.30 0.29 0.22 0.20 0.24 0.22 0.22 0.17 0.31 0.42 0.28 0.24 0.24 0.18 0.16 0.16 0.19 0.08 0.04 0.01 0.01 0.02 0.02 0.01 0.01 0.01 0.01 0.01 0.01 0.01 0.01 0.01 0.01 0.01 0.00 0.00 0.00 0.00 0.00 0.00 0.00 0.00 0.00 0.00 0.00 0.00 0.01 0.01 0.01 0.01 0.01 0.01
0.12 0.29 0.25 0.12 0.09 0.01 0.01 0.01 0.01 0.03 0.06 0.06 0.11 0.12 0.36 0.39 0.32 0.35 0.44 0.35 0.61 0.62 0.50 0.66 0.50 0.44 0.31 0.24 0.15 0.23 0.53 0.43 0.22 0.15 0.31 0.19 0.13 0.18 0.15 0.12 0.12 0.16 0.16 0.19 0.20 0.19 0.13 0.17 0.32 0.30 0.18 0.02 0.00 0.00 0.00 0.01 0.05 0.02 0.01 0.01 0.00 0.00 0.00 0.00 0.00 0.00 0.00 0.00 0.00 0.00 0.00 0.00 0.00 0.00 0.00 0.00 0.00 0.00 0.00 0.00 0.00 0.00 0.00 0.00 0.00